User: anonymous   Login
Location: Capannuccia
(43.7000°N, 11.3000°E)
Time: 23:16:56
(UTC+00:00)
Language:

ISS - Orbit

View from above orbital plane
View from above orbital plane
View from above satellite
View from above satellite

Ground track
Ground track

The orbit data is extracted from the following two-line orbital elements,

1 25544U 98067A   21260.71035231  .00002092  00000-0  47035-4 0  9999
2 25544  51.6440 245.2365 0003238  26.2735 145.2881 15.48404416302933
Epoch (UTC): 17 September 2021 17:02:54
Eccentricity: 0.0003238
inclination: 51.6440°
perigee height: 419 km
apogee height: 423 km
right ascension of ascending node: 245.2365°
argument of perigee: 26.2735°
revolutions per day: 15.48404416
mean anomaly at epoch: 145.2881°
orbit number at epoch: 30293

The dashed part of the orbit path shows where the satellite is in the earth's shadow,  

DLR